Saint Ignace, MI

6:15 AM EST on December 06, 2016 (GMT -0500)
Mackinac Island

Weather History for KMCD - August, 2013

Change the Weather History Date:

Thursday, August 29, 2013

  Actual Average Record
Temperature  
Mean Temperature 72 °F -  
Max Temperature 80 °F 70 °F 86 °F (1991)
Min Temperature 63 °F 56 °F 40 °F (1982)
Cooling Degree Days 6    
Growing Degree Days 22 (Base 50)    
Moisture  
Dew Point 66 °F    
Average Humidity 85    
Maximum Humidity 99    
Minimum Humidity 60    
Precipitation  
Precipitation 0.00 in - - ()
Sea Level Pressure  
Sea Level Pressure 30.04 in    
Wind  
Wind Speed 5 mph (WSW)    
Max Wind Speed 10 mph    
Max Gust Speed -    
Visibility 8 miles    
Events Fog    
Averages and records for this station are not official NWS values.
T = Trace of Precipitation, MM = Missing Value Source: NWS Daily Summary

Daily Weather History Graph

Daily Weather History Graph

Search for Another Location

Airport or City:

Trip Planner

Search our weather history database for the weather conditions in past years. The results will help you decide how hot, cold, wet, or windy it might be!

Date:

Astronomy

Aug. 29, 2013 Rise Set
Actual Time 6:56 AM EDT 8:21 PM EDT
Civil Twilight 6:24 AM EDT 8:52 PM EDT
Nautical Twilight 5:47 AM EDT 9:30 PM EDT
Astronomical Twilight 5:07 AM EDT 10:10 PM EDT
Moon 12:37 AM EDT (8/29) 3:59 PM EDT (8/29)
Length of Visible Light 14h 27m
Length of Day
13h 25m
Last Quarter, 38% of the Moon is Illuminated
Aug 29
Last Quarter
Sep 5
New
Sep 12
First Quarter
Sep 19
Full
Sep 26
Last Quarter

Hourly Weather History & Observations

Time (EDT) Temp. Heat Index Dew Point Humidity Pressure Visibility Wind Dir Wind Speed Gust Speed Precip Events Conditions
12:16 AM 67.6 °F - 65.5 °F 93% 30.05 in 10.0 mi North 5.8 mph - N/A   Clear
12:35 AM 66.7 °F - 65.3 °F 95% 30.05 in 10.0 mi NNE 4.6 mph - N/A   Clear
12:55 AM 66.2 °F - 64.9 °F 96% 30.05 in 7.0 mi NNE 4.6 mph - N/A   Clear
1:16 AM 66.2 °F - 64.8 °F 95% 30.05 in 10.0 mi NE 6.9 mph - N/A   Clear
1:35 AM 65.8 °F - 64.4 °F 95% 30.05 in 7.0 mi NNE 4.6 mph - N/A   Clear
1:55 AM 65.5 °F - 64.6 °F 97% 30.05 in 7.0 mi NNE 4.6 mph - N/A   Clear
2:16 AM 65.3 °F - 64.4 °F 97% 30.04 in 7.0 mi NNE 6.9 mph - N/A   Clear
2:35 AM 65.3 °F - 64.4 °F 97% 30.05 in 10.0 mi NNE 3.5 mph - N/A   Clear
2:55 AM 65.3 °F - 64.0 °F 96% 30.05 in 7.0 mi Calm Calm - N/A   Clear
3:15 AM 64.9 °F - 64.0 °F 97% 30.04 in 10.0 mi Calm Calm - N/A   Clear
3:35 AM 64.0 °F - 63.1 °F 97% 30.05 in 7.0 mi Calm Calm - N/A   Clear
3:56 AM 64.4 °F - 63.5 °F 97% 30.04 in 10.0 mi SSW 5.8 mph - N/A   Clear
4:15 AM 64.8 °F - 63.7 °F 96% 30.04 in 7.0 mi WSW 3.5 mph - N/A   Clear
4:35 AM 64.8 °F - 64.0 °F 98% 30.04 in 7.0 mi WNW 3.5 mph - N/A   Clear
4:56 AM 63.7 °F - 63.0 °F 97% 30.05 in 7.0 mi Calm Calm - N/A   Clear
5:15 AM 64.0 °F - 63.5 °F 98% 30.05 in 7.0 mi SSW 3.5 mph - N/A   Clear
5:35 AM 64.2 °F - 63.5 °F 98% 30.05 in 7.0 mi WSW 3.5 mph - N/A   Clear
5:56 AM 63.9 °F - 63.5 °F 99% 30.05 in 7.0 mi WSW 5.8 mph - N/A   Clear
6:15 AM 64.4 °F - 63.9 °F 98% 30.06 in 7.0 mi SSW 4.6 mph - N/A   Clear
6:35 AM 64.6 °F - 63.9 °F 98% 30.05 in 7.0 mi SW 4.6 mph - N/A   Clear
6:56 AM 64.6 °F - 63.7 °F 97% 30.07 in 5.0 mi WSW 3.5 mph - N/A   Clear
7:15 AM 64.4 °F - 63.7 °F 98% 30.07 in 5.0 mi West 4.6 mph - N/A   Clear
7:35 AM 64.6 °F - 63.9 °F 98% 30.08 in 7.0 mi West 4.6 mph - N/A   Scattered Clouds
7:56 AM 67.6 °F - 67.3 °F 99% 30.07 in 0.2 mi West 4.6 mph - N/A Fog Fog
8:15 AM 67.5 °F - 67.3 °F 99% 30.07 in 0.2 mi SW 3.5 mph - N/A Fog Fog
8:35 AM 67.5 °F - 67.3 °F 99% 30.08 in 0.2 mi WSW 5.8 mph - N/A Fog Fog
8:56 AM 68.2 °F - 68.0 °F 99% 30.07 in 0.2 mi WSW 5.8 mph - N/A Fog Fog
9:15 AM 68.5 °F - 68.4 °F 99% 30.07 in 0.2 mi WSW 3.5 mph - N/A Fog Fog
9:35 AM 69.1 °F - 68.9 °F 99% 30.07 in 0.2 mi WSW 4.6 mph - N/A Fog Fog
9:56 AM 69.8 °F - 69.4 °F 99% 30.08 in 1.2 mi WSW 4.6 mph - N/A   Overcast
10:15 AM 70.0 °F - 69.8 °F 99% 30.08 in 1.0 mi WSW 3.5 mph - N/A   Overcast
10:36 AM 71.6 °F - 70.2 °F 95% 30.08 in 7.0 mi WSW 4.6 mph - N/A   Scattered Clouds
10:55 AM 72.7 °F - 70.3 °F 92% 30.08 in 10.0 mi WSW 6.9 mph - N/A   Clear
11:15 AM 73.6 °F - 70.2 °F 89% 30.07 in 10.0 mi WSW 6.9 mph - N/A   Clear
11:35 AM 74.8 °F - 70.0 °F 85% 30.07 in 10.0 mi WSW 5.8 mph - N/A   Clear
11:55 AM 74.8 °F - 69.6 °F 84% 30.08 in 10.0 mi WSW 4.6 mph - N/A   Clear
12:15 PM 76.1 °F - 69.4 °F 80% 30.08 in 10.0 mi WSW 4.6 mph - N/A   Clear
12:35 PM 77.4 °F - 69.3 °F 76% 30.08 in 10.0 mi West 4.6 mph - N/A   Clear
12:55 PM 76.6 °F - 69.3 °F 78% 30.08 in 10.0 mi WSW 6.9 mph - N/A   Clear
1:15 PM 76.6 °F - 69.3 °F 78% 30.07 in 10.0 mi West 5.8 mph - N/A   Clear
1:35 PM 77.4 °F - 69.1 °F 76% 30.07 in 10.0 mi SW 4.6 mph - N/A   Clear
1:55 PM 77.5 °F - 68.7 °F 74% 30.07 in 10.0 mi WSW 6.9 mph - N/A   Clear
2:15 PM 78.3 °F - 68.9 °F 73% 30.07 in 10.0 mi WSW 4.6 mph - N/A   Clear
2:35 PM 78.6 °F - 68.7 °F 72% 30.06 in 10.0 mi WSW 5.8 mph - N/A   Clear
2:55 PM 78.6 °F - 67.8 °F 69% 30.06 in 10.0 mi WSW 6.9 mph - N/A   Clear
3:15 PM 78.8 °F - 67.8 °F 69% 30.05 in 10.0 mi SW 4.6 mph - N/A   Clear
3:35 PM 78.8 °F - 67.5 °F 68% 30.04 in 10.0 mi SW 4.6 mph - N/A   Clear
3:55 PM 79.2 °F - 66.9 °F 66% 30.04 in 10.0 mi WSW 8.1 mph - N/A   Clear
4:16 PM 79.9 °F - 67.1 °F 65% 30.03 in 10.0 mi WSW 6.9 mph - N/A   Clear
4:35 PM 80.1 °F 82.4 °F 67.3 °F 65% 30.03 in 10.0 mi West 5.8 mph - N/A   Clear
4:55 PM 80.6 °F 82.7 °F 66.0 °F 61% 30.02 in 10.0 mi West 6.9 mph - N/A   Clear
5:16 PM 80.8 °F 82.9 °F 66.0 °F 61% 30.02 in 10.0 mi West 8.1 mph - N/A   Clear
5:35 PM 80.6 °F 82.5 °F 65.5 °F 60% 30.02 in 10.0 mi West 5.8 mph - N/A   Clear
5:55 PM 80.4 °F 82.4 °F 65.8 °F 61% 30.02 in 10.0 mi West 6.9 mph - N/A   Clear
6:15 PM 79.0 °F - 65.5 °F 63% 30.02 in 10.0 mi West 8.1 mph - N/A   Clear
6:35 PM 78.1 °F - 65.8 °F 66% 30.01 in 10.0 mi West 5.8 mph - N/A   Clear
6:56 PM 77.2 °F - 65.8 °F 68% 30.01 in 10.0 mi West 3.5 mph - N/A   Clear
7:15 PM 76.3 °F - 65.3 °F 69% 30.01 in 10.0 mi West 8.1 mph - N/A   Clear
7:35 PM 75.6 °F - 65.7 °F 71% 30.01 in 10.0 mi West 5.8 mph - N/A   Clear
7:55 PM 74.7 °F - 66.2 °F 75% 30.01 in 10.0 mi WNW 4.6 mph - N/A   Clear
8:15 PM 73.9 °F - 66.2 °F 77% 30.02 in 10.0 mi Calm Calm - N/A   Clear
8:35 PM 73.8 °F - 65.8 °F 76% 30.01 in 10.0 mi WNW 3.5 mph - N/A   Clear
8:55 PM 73.4 °F - 65.5 °F 76% 30.02 in 10.0 mi West 3.5 mph - N/A   Clear
9:15 PM 73.2 °F - 65.3 °F 76% 30.01 in 10.0 mi West 5.8 mph - N/A   Clear
9:36 PM 73.0 °F - 65.7 °F 78% 30.00 in 10.0 mi SSW 5.8 mph - N/A   Clear
9:55 PM 71.6 °F - 65.8 °F 82% 30.00 in 10.0 mi South 5.8 mph - N/A   Clear
10:15 PM 70.7 °F - 68.2 °F 92% 29.98 in 10.0 mi South 9.2 mph - N/A   Clear
10:36 PM 71.6 °F - 68.2 °F 89% 29.97 in 10.0 mi South 9.2 mph - N/A   Clear
10:55 PM 72.0 °F - 67.1 °F 85% 29.96 in 10.0 mi South 9.2 mph - N/A   Clear
11:15 PM 72.3 °F - 67.1 °F 84% 29.94 in 10.0 mi SSE 10.4 mph - N/A   Clear
11:36 PM 72.5 °F - 67.1 °F 83% 29.94 in 10.0 mi SSE 8.1 mph - N/A   Clear
11:55 PM 72.7 °F - 66.9 °F 82% 29.94 in 10.0 mi South 10.4 mph - N/A   Scattered Clouds